Weather History for St. Joseph, MO

Change the Weather History Date:

Saturday, January 19, 2013

  Actual Average Record
Temperature  
Mean Temperature 48 °F 27 °F  
Max Temperature 63 °F 37 °F 63 °F (1914)
Min Temperature 33 °F 17 °F -15 °F (1943)
Degree Days  
Heating Degree Days 17 38  
Month to date heating degree days 646 725  
Since 1 July heating degree days 2742 2938  
Cooling Degree Days 0 0  
Month to date cooling degree days 0 0  
Year to date cooling degree days 0 0  
Moisture  
Dew Point 28 °F    
Average Humidity 51    
Maximum Humidity 75    
Minimum Humidity 27    
Precipitation  
Precipitation 0.00 in 0.02 in 0.76 in (1980)
Month to date precipitation 0.30 0.32  
Year to date precipitation 0.30 0.32  
Sea Level Pressure  
Sea Level Pressure 30.05 in    
Wind  
Wind Speed 11 mph (West)    
Max Wind Speed 24 mph    
Max Gust Speed 29 mph    
Visibility 10 miles    
Events      
T = Trace of Precipitation, MM = Missing Value Source: NWS Daily Summary

Daily Weather History Graph

Daily Weather History Graph

Search for Another Location

Airport:

Trip Planner

Search our weather history database for the weather conditions in past years. The results will help you decide how hot, cold, wet, or windy it might be!

Date:

Astronomy

Jan. 19, 2013 Rise Set
Actual Time 7:37 AM CST 5:24 PM CST
Civil Twilight 7:07 AM CST 5:53 PM CST
Nautical Twilight 6:34 AM CST 6:26 PM CST
Astronomical Twilight 6:02 AM CST 6:58 PM CST
Moon 11:50 AM CST (1/19) 1:12 AM CST (1/19)
Length of Visible Light 10h 46m
Length of Day
9h 47m
First Quarter, 57% of the Moon is Illuminated
Jan 19
First Quarter
Jan 26
Full
Feb 3
Last Quarter
Feb 10
New
Feb 17
First Quarter

Hourly Weather History & Observations

Time (CST) Temp. Windchill Dew Point Humidity Pressure Visibility Wind Dir Wind Speed Gust Speed Precip Events Conditions
12:53 AM 43.0 °F 38.2 °F 30.0 °F 60% 29.98 in 10.0 mi SSW 8.1 mph - N/A   Clear
1:53 AM 41.0 °F 34.7 °F 28.9 °F 62% 29.99 in 10.0 mi SSW 10.4 mph - N/A   Clear
2:53 AM 41.0 °F 34.3 °F 28.9 °F 62% 29.97 in 10.0 mi SSW 11.5 mph - N/A   Clear
3:53 AM 39.9 °F 33.4 °F 28.9 °F 65% 29.96 in 10.0 mi SSW 10.4 mph - N/A   Clear
4:53 AM 39.0 °F 33.4 °F 28.9 °F 67% 29.95 in 10.0 mi SW 8.1 mph - N/A   Clear
5:53 AM 37.0 °F 31.6 °F 28.0 °F 70% 29.96 in 10.0 mi SSW 6.9 mph - N/A   Clear
6:53 AM 37.0 °F 32.4 °F 28.9 °F 73% 29.96 in 10.0 mi SW 5.8 mph - N/A   Clear
7:53 AM 37.0 °F 31.6 °F 28.9 °F 73% 29.97 in 10.0 mi SSW 6.9 mph - N/A   Clear
8:53 AM 39.9 °F 33.9 °F 30.0 °F 68% 29.98 in 10.0 mi SW 9.2 mph - N/A   Clear
9:53 AM 44.1 °F 40.1 °F 30.9 °F 60% 30.02 in 10.0 mi WSW 6.9 mph - N/A   Clear
10:53 AM 48.9 °F - 30.0 °F 48% 30.04 in 10.0 mi West 9.2 mph - N/A   Clear
11:53 AM 52.0 °F - 28.9 °F 41% 30.01 in 10.0 mi West 8.1 mph - N/A   Clear
12:53 PM 57.0 °F - 27.0 °F 32% 29.99 in 10.0 mi NNW 16.1 mph - N/A   Clear
1:53 PM 59.0 °F - 28.0 °F 31% 29.99 in 10.0 mi WNW 13.8 mph - N/A   Clear
2:53 PM 61.0 °F - 27.0 °F 27% 29.99 in 10.0 mi NW 15.0 mph - N/A   Clear
3:53 PM 57.9 °F - 28.0 °F 32% 30.02 in 10.0 mi NW 23.0 mph - N/A   Clear
4:53 PM 53.1 °F - 28.9 °F 40% 30.07 in 10.0 mi NNW 12.7 mph - N/A   Clear
5:53 PM 44.1 °F 39.5 °F 28.0 °F 53% 30.12 in 10.0 mi WNW 8.1 mph - N/A   Clear
6:53 PM 46.0 °F 39.9 °F 28.9 °F 51% 30.16 in 10.0 mi NNW 13.8 mph - N/A   Clear
7:53 PM 37.9 °F 33.5 °F 27.0 °F 65% 30.19 in 10.0 mi North 5.8 mph - N/A   Clear
8:53 PM 34.0 °F 29.8 °F 26.1 °F 73% 30.23 in 10.0 mi NNW 4.6 mph - N/A   Clear
9:53 PM 39.0 °F 32.3 °F 27.0 °F 62% 30.25 in 10.0 mi North 10.4 mph - N/A   Clear
11:53 PM 34.0 °F 24.6 °F 19.9 °F 56% 30.30 in 10.0 mi North 13.8 mph - N/A   Clear